Location: Mahannah Oil Field
(37.4664°N, 96.6003°W)
Time: 20:59:27
(UTC+00:00)

Tiros 1 despin weight - Visible Passes

Search period start: 21 January 2021 00:00
Search period end: 31 January 2021 00:00
Orbit: 594 x 641 km, 48.2° (Epoch: 20 January)

Date Brightness Start Highest point End Pass type
(mag) Time Alt. Az. Time Alt. Az. Time Alt. Az.
21 Jan ? 00:00:32 10° WNW 00:04:05 23° N 00:07:38 10° NE visible
21 Jan ? 01:43:12 10° NW 01:45:38 20° NNW 01:45:38 20° NNW visible
22 Jan ? 00:17:34 10° NW 00:20:55 20° N 00:24:15 10° NE visible
22 Jan ? 01:59:37 10° NW 02:01:25 20° NNW 02:01:25 20° NNW visible
23 Jan ? 00:34:21 10° NW 00:37:46 21° N 00:40:12 14° NE visible
23 Jan ? 02:15:55 10° NW 02:17:15 18° NW 02:17:15 18° NW visible
24 Jan ? 00:50:53 10° NW 00:54:34 24° NNE 00:56:05 20° NE visible
24 Jan ? 02:32:14 10° NW 02:33:09 16° NW 02:33:09 16° NW visible
25 Jan ? 01:07:14 10° NW 01:11:17 33° NNE 01:12:03 31° NE visible
25 Jan ? 02:48:39 10° WNW 02:49:07 13° WNW 02:49:07 13° WNW visible
26 Jan ? 01:23:31 10° NW 01:27:53 51° NNE 01:28:08 50° NE visible
27 Jan ? 01:39:52 10° NW 01:44:20 89° SW 01:44:21 89° S visible
28 Jan ? 00:14:50 10° NW 00:19:03 39° NNE 00:23:12 10° E visible
28 Jan ? 01:56:23 10° WNW 02:00:38 45° SW 02:00:44 45° SW visible
29 Jan ? 00:31:07 10° NW 00:35:35 65° NNE 00:39:57 10° ESE visible
29 Jan ? 02:13:21 10° W 02:16:47 22° SW 02:17:21 22° SW visible
30 Jan ? 00:47:31 10° WNW 00:51:58 69° SW 00:56:21 10° SE visible
30 Jan ? 02:32:19 10° WSW 02:32:49 10° SW 02:33:18 10° SW visible
